When you browse on this site, cookies collect data to enhance your experience and personalize the content and advertising you see.
Visit our Privacy Policy to learn more. By continuing to use the site, you agree to this use of cookies and data.
  • In United Kingdom
  • List of Countries
  • For 7 days
  • Water Temperature
  • Weather Map
  • Weather Widgets
  • user-avatar
    Login

    Hourly Weather Gruszczyn

    Today, 21 October, Monday

    Time Temperature Precipitation Wind Pressure Humidity
    00:00 +15°C° 0 mm 1 mps 753 mmHg 76%
    01:00 +15°C° 0 mm 1 mps 753 mmHg 77%
    02:00 +15°C° 0 mm 1 mps 753 mmHg 77%
    03:00 +15°C° 0 mm 1 mps 753 mmHg 78%
    04:00 +15°C° 0 mm 2 mps 753 mmHg 78%
    05:00 +14°C° 0 mm 2 mps 753 mmHg 79%
    06:00 +14°C° 0 mm 2 mps 754 mmHg 80%
    07:00 +14°C° 0 mm 1 mps 754 mmHg 75%
    08:00 +16°C° 0 mm 1 mps 754 mmHg 69%
    09:00 +19°C° 0 mm 1 mps 754 mmHg 63%
    10:00 +21°C° 0 mm 1 mps 755 mmHg 56%
    11:00 +22°C° 0 mm 1 mps 755 mmHg 54%
    12:00 +23°C° 0 mm 1 mps 755 mmHg 52%
    13:00 +24°C° 0 mm 1 mps 756 mmHg 50%
    14:00 +23°C° 0 mm 1 mps 756 mmHg 54%
    15:00 +22°C° 0 mm 1 mps 756 mmHg 58%
    16:00 +21°C° 0 mm 1 mps 755 mmHg 63%
    17:00 +20°C° 0 mm 1 mps 756 mmHg 66%
    18:00 +19°C° 0 mm 1 mps 756 mmHg 69%
    19:00 +18°C° 0 mm 1 mps 757 mmHg 73%
    20:00 +17°C° 0 mm 2 mps 757 mmHg 74%
    21:00 +17°C° 0 mm 2 mps 756 mmHg 76%
    22:00 +16°C° 0 mm 2 mps 756 mmHg 77%
    23:00 +16°C° 0 mm 2 mps 757 mmHg 77%

    Tomorrow, 22 October, Tuesday

    Time Temperature Precipitation Wind Pressure Humidity
    00:00 +16°C° 0 mm 2 mps 757 mmHg 78%
    01:00 +15°C° 0 mm 2 mps 757 mmHg 78%
    02:00 +15°C° 0 mm 2 mps 757 mmHg 79%
    03:00 +15°C° 0 mm 1 mps 757 mmHg 80%
    04:00 +14°C° 0 mm 1 mps 757 mmHg 81%
    05:00 +14°C° 0 mm 1 mps 757 mmHg 81%
    06:00 +14°C° 0 mm 2 mps 757 mmHg 82%
    07:00 +14°C° 0 mm 2 mps 758 mmHg 82%
    08:00 +16°C° 0 mm 2 mps 758 mmHg 75%
    09:00 +18°C° 0 mm 2 mps 758 mmHg 69%
    10:00 +19°C° 0 mm 2 mps 758 mmHg 62%
    11:00 +20°C° 0 mm 2 mps 758 mmHg 60%
    12:00 +22°C° 0 mm 1 mps 757 mmHg 58%
    13:00 +23°C° 0 mm 1 mps 757 mmHg 55%
    14:00 +22°C° 0 mm 1 mps 757 mmHg 59%
    15:00 +21°C° 0 mm 1 mps 757 mmHg 64%
    16:00 +20°C° 0 mm 1 mps 757 mmHg 68%
    17:00 +19°C° 0 mm 1 mps 757 mmHg 72%
    18:00 +19°C° 0 mm 1 mps 757 mmHg 76%
    19:00 +16°C° 0 mm 0 mps 757 mmHg 80%
    20:00 +16°C° 0 mm 1 mps 757 mmHg 83%
    21:00 +16°C° 0 mm 1 mps 757 mmHg 85%
    22:00 +15°C° 0 mm 1 mps 757 mmHg 87%
    23:00 +15°C° 0 mm 1 mps 757 mmHg 89%

    Day after tomorrow, 23 October, Wednesday

    Time Temperature Precipitation Wind Pressure Humidity
    00:00 +15°C° 0 mm 2 mps 757 mmHg 90%
    01:00 +14°C° 0 mm 2 mps 757 mmHg 92%
    02:00 +14°C° 0 mm 2 mps 757 mmHg 93%
    03:00 +14°C° 0 mm 2 mps 757 mmHg 93%
    04:00 +13°C° 0 mm 2 mps 757 mmHg 94%
    05:00 +13°C° 0 mm 2 mps 757 mmHg 94%
    06:00 +13°C° 0 mm 2 mps 757 mmHg 94%
    07:00 +13°C° 0 mm 2 mps 757 mmHg 94%
    08:00 +14°C° 0 mm 1 mps 757 mmHg 87%
    09:00 +16°C° 0 mm 1 mps 757 mmHg 79%
    10:00 +18°C° 0 mm 1 mps 757 mmHg 72%
    11:00 +19°C° 0 mm 1 mps 757 mmHg 67%
    12:00 +20°C° 0 mm 1 mps 757 mmHg 63%
    13:00 +21°C° 0 mm 1 mps 757 mmHg 58%
    14:00 +20°C° 0 mm 1 mps 757 mmHg 61%
    15:00 +19°C° 0 mm 1 mps 756 mmHg 63%
    16:00 +17°C° 0 mm 2 mps 756 mmHg 65%
    17:00 +17°C° 0 mm 2 mps 756 mmHg 68%
    18:00 +16°C° 0 mm 2 mps 756 mmHg 70%
    19:00 +15°C° 0 mm 2 mps 756 mmHg 73%
    20:00 +14°C° 0 mm 2 mps 756 mmHg 76%
    21:00 +14°C° 0 mm 2 mps 756 mmHg 79%
    22:00 +14°C° 0 mm 2 mps 756 mmHg 82%
    23:00 +12°C° 0 mm 3 mps 756 mmHg 84%

    24 October, Thursday

    Time Temperature Precipitation Wind Pressure Humidity
    00:00 +12°C° 0 mm 3 mps 756 mmHg 87%
    01:00 +12°C° 0 mm 3 mps 756 mmHg 89%
    02:00 +12°C° 0 mm 3 mps 755 mmHg 91%
    03:00 +12°C° 0 mm 3 mps 755 mmHg 92%
    04:00 +12°C° 0 mm 3 mps 754 mmHg 94%
    05:00 +12°C° 0 mm 3 mps 754 mmHg 94%
    06:00 +12°C° 0 mm 4 mps 754 mmHg 94%
    07:00 +12°C° 0 mm 4 mps 754 mmHg 95%
    08:00 +14°C° 0 mm 4 mps 753 mmHg 87%
    09:00 +16°C° 0 mm 5 mps 753 mmHg 79%
    10:00 +17°C° 0 mm 5 mps 753 mmHg 71%
    11:00 +20°C° 0 mm 5 mps 753 mmHg 66%
    12:00 +21°C° 0 mm 5 mps 752 mmHg 60%
    13:00 +22°C° 0 mm 5 mps 752 mmHg 55%
    14:00 +21°C° 0 mm 5 mps 752 mmHg 58%
    15:00 +20°C° 0 mm 4 mps 751 mmHg 61%
    16:00 +19°C° 0 mm 3 mps 751 mmHg 64%
    17:00 +18°C° 0 mm 3 mps 751 mmHg 67%
    18:00 +17°C° 0 mm 4 mps 751 mmHg 70%
    19:00 +17°C° 0 mm 4 mps 751 mmHg 74%
    20:00 +16°C° 0 mm 3 mps 752 mmHg 76%
    21:00 +14°C° 0 mm 3 mps 752 mmHg 78%
    22:00 +14°C° 0 mm 3 mps 752 mmHg 79%
    23:00 +13°C° 0 mm 3 mps 752 mmHg 79%

    25 October, Friday

    Time Temperature Precipitation Wind Pressure Humidity
    00:00 +14°C° 0 mm 2 mps 752 mmHg 79%
    01:00 +14°C° 0 mm 2 mps 752 mmHg 79%
    02:00 +14°C° 0 mm 2 mps 752 mmHg 78%
    03:00 +14°C° 0 mm 2 mps 752 mmHg 77%
    04:00 +13°C° 0 mm 2 mps 752 mmHg 77%
    05:00 +13°C° 0 mm 2 mps 753 mmHg 76%
    06:00 +13°C° 0 mm 2 mps 753 mmHg 75%
    07:00 +12°C° 0 mm 3 mps 753 mmHg 75%
    08:00 +14°C° 0 mm 3 mps 754 mmHg 70%
    09:00 +16°C° 0 mm 3 mps 754 mmHg 65%
    10:00 +18°C° 0 mm 3 mps 755 mmHg 60%
    11:00 +19°C° 0 mm 4 mps 755 mmHg 60%
    12:00 +20°C° 0 mm 4 mps 755 mmHg 60%
    13:00 +20°C° 0 mm 4 mps 755 mmHg 61%
    14:00 +19°C° 0 mm 3 mps 755 mmHg 65%
    15:00 +18°C° 0 mm 3 mps 755 mmHg 70%
    16:00 +18°C° 0 mm 2 mps 755 mmHg 75%
    17:00 +17°C° 0 mm 2 mps 755 mmHg 78%
    18:00 +16°C° 0 mm 2 mps 756 mmHg 82%
    19:00 +15°C° 0 mm 2 mps 756 mmHg 86%
    20:00 +15°C° 0 mm 1 mps 756 mmHg 87%
    21:00 +14°C° 0 mm 1 mps 756 mmHg 88%
    22:00 +14°C° 0 mm 1 mps 756 mmHg 90%
    23:00 +14°C° 0 mm 1 mps 756 mmHg 90%

    26 October, Saturday

    Time Temperature Precipitation Wind Pressure Humidity
    00:00 +13°C° 0 mm 1 mps 756 mmHg 90%
    01:00 +13°C° 0 mm 1 mps 756 mmHg 90%
    02:00 +13°C° 0 mm 1 mps 756 mmHg 90%
    03:00 +13°C° 0 mm 1 mps 755 mmHg 91%
    04:00 +13°C° 0 mm 1 mps 755 mmHg 91%
    05:00 +12°C° 0 mm 2 mps 755 mmHg 92%
    06:00 +12°C° 0 mm 2 mps 755 mmHg 92%
    07:00 +12°C° 0 mm 2 mps 754 mmHg 93%
    08:00 +13°C° 0 mm 3 mps 754 mmHg 85%
    09:00 +15°C° 0 mm 4 mps 754 mmHg 77%
    10:00 +18°C° 0 mm 4 mps 754 mmHg 70%
    11:00 +19°C° 0 mm 4 mps 754 mmHg 65%
    12:00 +20°C° 0 mm 5 mps 753 mmHg 60%
    13:00 +21°C° 0 mm 5 mps 753 mmHg 56%
    14:00 +20°C° 0 mm 4 mps 753 mmHg 59%
    15:00 +19°C° 0 mm 4 mps 752 mmHg 63%
    16:00 +18°C° 0 mm 3 mps 752 mmHg 67%
    17:00 +17°C° 0 mm 3 mps 752 mmHg 70%
    18:00 +16°C° 0 mm 3 mps 752 mmHg 74%
    19:00 +14°C° 0 mm 3 mps 752 mmHg 78%
    20:00 +14°C° 0 mm 3 mps 752 mmHg 80%
    21:00 +14°C° 0 mm 3 mps 752 mmHg 81%
    22:00 +13°C° 0 mm 3 mps 752 mmHg 83%
    23:00 +13°C° 0 mm 3 mps 752 mmHg 83%

    27 October, Sunday

    Time Temperature Precipitation Wind Pressure Humidity
    00:00 +13°C° 0 mm 3 mps 752 mmHg 83%
    01:00 +13°C° 0 mm 4 mps 752 mmHg 84%
    02:00 +13°C° 0 mm 4 mps 751 mmHg 83%
    03:00 +13°C° 0 mm 4 mps 751 mmHg 82%
    04:00 +13°C° 0 mm 5 mps 751 mmHg 81%
    05:00 +12°C° 0.2 mm 5 mps 752 mmHg 80%
    06:00 +10°C° 0.2 mm 6 mps 752 mmHg 79%
    07:00 +9°C° 0.2 mm 6 mps 753 mmHg 78%
    08:00 +9°C° 0.1 mm 6 mps 753 mmHg 73%
    09:00 +9°C° 0.1 mm 6 mps 754 mmHg 69%
    10:00 +9°C° 0.1 mm 6 mps 755 mmHg 64%
    11:00 +9°C° 0 mm 6 mps 755 mmHg 58%
    12:00 +9°C° 0 mm 6 mps 755 mmHg 52%
    13:00 +10°C° 0 mm 6 mps 755 mmHg 46%
    14:00 +9°C° 0 mm 6 mps 755 mmHg 48%
    15:00 +9°C° 0 mm 5 mps 755 mmHg 51%
    16:00 +8°C° 0 mm 4 mps 755 mmHg 53%
    17:00 +8°C° 0 mm 5 mps 755 mmHg 55%
    18:00 +7°C° 0 mm 5 mps 756 mmHg 58%
    19:00 +7°C° 0 mm 5 mps 756 mmHg 61%
    20:00 +6°C° 0 mm 5 mps 756 mmHg 63%
    21:00 +6°C° 0 mm 5 mps 756 mmHg 66%
    22:00 +6°C° 0 mm 5 mps 756 mmHg 69%
    23:00 +6°C° 0 mm 5 mps 756 mmHg 70%
    Show more